User: anonymous   Login
Location: Black Swamp Observatory
(41.3920°N, 84.1250°W)
Time: 00:28:24
(UTC-04:00)
Language:

Transit 4A - Orbit

View from above orbital plane
View from above orbital plane
View from above satellite
View from above satellite

Ground track
Ground track

The orbit data is extracted from the following two-line orbital elements,

1 00116U 61015A   22176.54447308 -.00000008  00000-0  52661-4 0  9997
2 00116  66.8080 203.7926 0079791 215.9705 143.5989 13.91834155 94517
Epoch (UTC): 25 June 2022 13:04:02
Eccentricity: 0.0079791
inclination: 66.8080°
perigee height: 864 km
apogee height: 980 km
right ascension of ascending node: 203.7926°
argument of perigee: 215.9705°
revolutions per day: 13.91834155
mean anomaly at epoch: 143.5989°
orbit number at epoch: 9451

The dashed part of the orbit path shows where the satellite is in the earth's shadow,  

DLR